START_TIME,STEP,MOV.,M29,t_acc.,H22,t_acc.,H26,t_acc.,H30,t_acc.
1981-08-30 18:00:32.410 ,3,1,0.,24.0,0.,24.0,0.,24.0,0.,24.0
1981-08-30 18:00:56.410 ,2,1,0.,24.0,0.,24.0,0.,24.0,0.,24.0
1981-08-30 18:01:20.410 ,1,1,0.,24.0,0.,24.0,0.,24.0,0.,24.0
1981-08-30 18:01:44.410 ,0,1,0.,24.0,0.,24.0,0.,24.0,0.,24.0
1981-08-30 18:02:08.410 ,0,1,0.,24.0,0.,24.0,0.,24.0,0.,24.0
1981-08-30 18:02:32.410 ,1,1,0.,24.0,0.,24.0,0.,24.0,0.,24.0
1981-08-30 18:02:56.410 ,2,1,1.,24.0,0.,24.0,0.,24.0,0.,24.0
1981-08-30 18:03:20.410 ,3,1,0.,24.0,0.,24.0,0.,24.0,0.,24.0
1981-08-30 18:03:44.410 ,3,0,0.,24.0,0.,24.0,0.,24.0,0.,24.0
1981-08-30 18:04:08.410 ,4,1,0.,24.0,0.,24.0,0.,24.0,0.,24.0
1981-08-30 18:04:32.410 ,4,0,0.,24.0,0.,24.0,0.,24.0,0.,24.0
1981-08-30 18:04:56.410 ,5,1,0.,24.0,0.,24.0,0.,24.0,0.,24.0
1981-08-30 18:05:20.410 ,5,0,0.,24.0,0.,24.0,0.,24.0,0.,24.0
1981-08-30 18:05:44.410 ,6,1,0.,24.0,0.,24.0,0.,24.0,0.,24.0
1981-08-30 18:06:08.410 ,6,0,0.,24.0,0.,24.0,0.,24.0,0.,24.0
1981-08-30 18:06:32.410 ,7,1,0.,24.0,0.,24.0,0.,24.0,0.,24.0
1981-08-30 18:06:56.410 ,7,0,1.,24.0,0.,24.0,0.,24.0,0.,24.0
1981-08-30 18:07:20.410 ,7,1,0.,24.0,0.,24.0,0.,24.0,0.,24.0
1981-08-30 18:07:44.410 ,7,0,0.,24.0,0.,24.0,0.,24.0,0.,24.0
1981-08-30 18:08:08.410 ,6,1,0.,24.0,0.,24.0,0.,24.0,0.,24.0
1981-08-30 18:08:32.410 ,6,0,0.,24.0,0.,24.0,0.,24.0,0.,24.0
1981-08-30 18:08:56.410 ,5,1,0.,24.0,0.,24.0,0.,24.0,0.,24.0
1981-08-30 18:09:20.410 ,5,0,0.,24.0,0.,24.0,0.,24.0,0.,24.0
1981-08-30 18:09:44.410 ,4,1,0.,24.0,0.,24.0,0.,24.0,0.,24.0
1981-08-30 18:10:08.410 ,4,0,0.,24.0,0.,24.0,0.,24.0,0.,24.0
1981-08-30 18:10:32.410 ,3,1,0.,24.0,0.,24.0,0.,24.0,0.,24.0
1981-08-30 18:10:56.410 ,3,0,0.,24.0,0.,24.0,0.,24.0,0.,24.0
1981-08-30 18:11:20.410 ,2,1,0.,24.0,0.,24.0,0.,24.0,0.,24.0
1981-08-30 18:11:44.410 ,2,0,0.,24.0,0.,24.0,0.,24.0,0.,24.0
1981-08-30 18:12:08.410 ,1,1,0.,24.0,0.,24.0,0.,24.0,0.,24.0
1981-08-30 18:12:32.410 ,1,0,0.,24.0,0.,24.0,0.,24.0,0.,24.0
1981-08-30 18:12:56.410 ,0,1,0.,24.0,0.,24.0,0.,24.0,0.,24.0
1981-08-30 18:13:20.410 ,0,0,0.,24.0,0.,24.0,0.,24.0,0.,24.0
1981-08-30 18:13:44.410 ,0,1,0.,24.0,0.,24.0,0.,24.0,0.,24.0
1981-08-30 18:14:08.410 ,0,0,0.,24.0,0.,24.0,0.,24.0,0.,24.0
1981-08-30 18:14:32.410 ,1,1,0.,24.0,0.,24.0,0.,24.0,0.,24.0
1981-08-30 18:14:56.410 ,1,0,0.,24.0,0.,24.0,0.,24.0,0.,24.0
1981-08-30 18:15:20.410 ,2,1,0.,24.0,0.,24.0,0.,24.0,0.,24.0
1981-08-30 18:15:44.410 ,2,0,0.,24.0,0.,24.0,0.,24.0,0.,24.0
1981-08-30 18:16:08.410 ,3,1,0.,24.0,0.,24.0,0.,24.0,0.,24.0
1981-08-30 18:16:32.410 ,4,1,0.,24.0,0.,24.0,0.,24.0,0.,24.0
1981-08-30 18:16:56.410 ,5,1,0.,24.0,0.,24.0,0.,24.0,0.,24.0
1981-08-30 18:17:20.410 ,6,1,0.,24.0,0.,24.0,0.,24.0,0.,24.0
1981-08-30 18:17:44.410 ,7,1,0.,24.0,0.,24.0,0.,24.0,0.,24.0
1981-08-30 18:18:08.410 ,7,1,0.,24.0,0.,24.0,0.,24.0,0.,24.0
1981-08-30 18:18:32.410 ,6,1,0.,24.0,0.,24.0,0.,24.0,0.,24.0
1981-08-30 18:18:56.410 ,5,1,0.,24.0,0.,24.0,0.,24.0,0.,24.0
1981-08-30 18:19:20.410 ,4,1,0.,24.0,0.,24.0,0.,24.0,0.,24.0
1981-08-30 18:19:44.410 ,3,1,0.,24.0,0.,24.0,0.,24.0,0.,24.0
1981-08-30 18:20:08.410 ,2,1,0.,24.0,0.,24.0,0.,24.0,0.,24.0
1981-08-30 18:20:32.410 ,1,1,0.,24.0,0.,24.0,0.,24.0,0.,24.0
1981-08-30 18:20:56.410 ,0,1,0.,24.0,0.,24.0,0.,24.0,0.,24.0
1981-08-30 18:21:20.410 ,0,1,0.,24.0,0.,24.0,0.,24.0,0.,24.0
1981-08-30 18:21:44.410 ,1,1,0.,24.0,0.,24.0,0.,24.0,0.,24.0
1981-08-30 18:22:08.410 ,2,1,0.,24.0,0.,24.0,0.,24.0,0.,24.0
1981-08-30 18:22:32.410 ,3,1,0.,24.0,0.,24.0,0.,24.0,0.,24.0
1981-08-30 18:22:56.410 ,3,0,0.,24.0,0.,24.0,0.,24.0,0.,24.0
1981-08-30 18:23:20.410 ,4,1,0.,24.0,0.,24.0,0.,24.0,0.,24.0
1981-08-30 18:23:44.410 ,4,0,0.,24.0,0.,24.0,0.,24.0,0.,24.0
1981-08-30 18:24:08.410 ,5,1,0.,24.0,0.,24.0,0.,24.0,0.,24.0
1981-08-30 18:24:32.410 ,5,0,0.,24.0,0.,24.0,0.,24.0,0.,24.0
1981-08-30 18:24:56.410 ,6,1,0.,24.0,0.,24.0,0.,24.0,0.,24.0
1981-08-30 18:25:20.410 ,6,0,0.,24.0,0.,24.0,0.,24.0,0.,24.0
1981-08-30 18:25:44.410 ,7,1,0.,24.0,0.,24.0,0.,24.0,0.,24.0
1981-08-30 18:26:08.410 ,7,0,,0,,0,,0,,0
1981-08-30 18:26:32.410 ,7,1,0.,24.0,0.,24.0,0.,24.0,0.,24.0
1981-08-30 18:26:56.410 ,7,0,0.,24.0,0.,24.0,0.,24.0,0.,24.0
1981-08-30 18:27:20.410 ,6,1,0.,24.0,0.,24.0,0.,24.0,0.,24.0
1981-08-30 18:27:44.410 ,6,0,0.,24.0,0.,24.0,0.,24.0,0.,24.0
1981-08-30 18:28:08.410 ,5,1,0.,24.0,0.,24.0,0.,24.0,0.,24.0
1981-08-30 18:28:32.410 ,5,0,0.,24.0,0.,24.0,0.,24.0,0.,24.0
1981-08-30 18:28:56.410 ,4,1,0.,24.0,0.,24.0,0.,24.0,0.,24.0
1981-08-30 18:29:20.410 ,4,0,0.,24.0,0.,24.0,0.,24.0,0.,24.0
1981-08-30 18:29:44.410 ,3,1,0.,24.0,0.,24.0,0.,24.0,0.,24.0
1981-08-30 18:30:08.410 ,3,0,0.,24.0,0.,24.0,0.,24.0,0.,24.0
1981-08-30 18:30:32.410 ,2,1,0.,24.0,0.,24.0,0.,24.0,0.,24.0
1981-08-30 18:30:56.410 ,2,0,0.,24.0,0.,24.0,0.,24.0,0.,24.0
1981-08-30 18:31:20.410 ,1,1,0.,24.0,0.,24.0,0.,24.0,0.,24.0
1981-08-30 18:31:44.410 ,1,0,0.,24.0,0.,24.0,0.,24.0,0.,24.0
1981-08-30 18:32:08.410 ,0,1,0.,24.0,0.,24.0,0.,24.0,0.,24.0
1981-08-30 18:32:32.410 ,0,0,0.,24.0,0.,24.0,0.,24.0,0.,24.0
1981-08-30 18:32:56.410 ,0,1,0.,24.0,0.,24.0,0.,24.0,0.,24.0
1981-08-30 18:33:20.410 ,0,0,0.,24.0,0.,24.0,0.,24.0,0.,24.0
1981-08-30 18:33:44.410 ,1,1,0.,24.0,0.,24.0,0.,24.0,0.,24.0
1981-08-30 18:34:08.410 ,1,0,0.,24.0,0.,24.0,0.,24.0,0.,24.0
1981-08-30 18:34:32.410 ,2,1,0.,24.0,0.,24.0,0.,24.0,0.,24.0
1981-08-30 18:34:56.410 ,2,0,0.,24.0,0.,24.0,0.,24.0,0.,24.0
1981-08-30 18:35:20.410 ,3,1,0.,24.0,0.,24.0,0.,24.0,0.,24.0
1981-08-30 18:35:44.410 ,4,1,0.,24.0,0.,24.0,0.,24.0,0.,24.0
1981-08-30 18:36:08.410 ,5,1,0.,24.0,0.,24.0,0.,24.0,0.,24.0
1981-08-30 18:36:32.410 ,6,1,0.,24.0,0.,24.0,0.,24.0,0.,24.0
1981-08-30 18:36:56.410 ,7,1,0.,24.0,0.,24.0,0.,24.0,0.,24.0
1981-08-30 18:37:20.410 ,7,1,0.,24.0,0.,24.0,0.,24.0,0.,24.0
1981-08-30 18:37:44.410 ,6,1,0.,24.0,0.,24.0,0.,24.0,0.,24.0
1981-08-30 18:38:08.410 ,5,1,0.,24.0,0.,24.0,0.,24.0,0.,24.0
1981-08-30 18:38:32.410 ,4,1,0.,24.0,0.,24.0,0.,24.0,0.,24.0
1981-08-30 18:38:56.410 ,3,1,0.,24.0,0.,24.0,0.,24.0,0.,24.0
1981-08-30 18:39:20.410 ,2,1,0.,24.0,0.,24.0,0.,24.0,0.,24.0
1981-08-30 18:39:44.410 ,1,1,0.,24.0,0.,24.0,0.,24.0,0.,24.0
1981-08-30 18:40:08.410 ,0,1,0.,24.0,0.,24.0,0.,24.0,0.,24.0
1981-08-30 18:40:32.410 ,0,1,0.,24.0,0.,24.0,0.,24.0,0.,24.0
1981-08-30 18:40:56.410 ,1,1,0.,24.0,0.,24.0,0.,24.0,0.,24.0
1981-08-30 18:41:20.410 ,0,0,0.,24.0,0.,24.0,0.,24.0,0.,24.0
1981-08-30 18:42:00.010 ,0,0,,0,,0,,0,,0
1981-08-30 18:42:08.410 ,0,0,0.,24.0,0.,24.0,0.,24.0,0.,24.0
1981-08-30 18:42:32.410 ,4,1,0.,24.0,0.,24.0,0.,24.0,0.,24.0
1981-08-30 18:42:56.410 ,4,0,0.,24.0,0.,24.0,0.,24.0,0.,24.0
1981-08-30 18:43:20.410 ,5,1,0.,24.0,0.,24.0,0.,24.0,0.,24.0
1981-08-30 18:43:44.410 ,5,0,0.,24.0,0.,24.0,0.,24.0,0.,24.0
1981-08-30 18:44:08.410 ,6,1,0.,24.0,0.,24.0,0.,24.0,0.,24.0
1981-08-30 18:44:32.410 ,6,0,0.,24.0,0.,24.0,0.,24.0,0.,24.0
1981-08-30 18:44:56.410 ,7,1,0.,24.0,0.,24.0,0.,24.0,0.,24.0
1981-08-30 18:45:20.410 ,7,0,0.,24.0,0.,24.0,0.,24.0,0.,24.0
1981-08-30 18:45:44.410 ,7,1,0.,24.0,0.,24.0,0.,24.0,0.,24.0
1981-08-30 18:46:08.410 ,7,0,1.,24.0,0.,24.0,0.,24.0,0.,24.0
1981-08-30 18:46:32.410 ,6,1,0.,24.0,0.,24.0,0.,24.0,0.,24.0
1981-08-30 18:46:56.410 ,6,0,0.,24.0,0.,24.0,0.,24.0,0.,24.0
1981-08-30 18:47:20.410 ,5,1,0.,24.0,0.,24.0,0.,24.0,0.,24.0
1981-08-30 18:47:44.410 ,5,0,0.,24.0,0.,24.0,0.,24.0,0.,24.0
1981-08-30 18:48:08.410 ,4,1,1.,24.0,0.,24.0,0.,24.0,0.,24.0
1981-08-30 18:48:32.410 ,4,0,0.,24.0,0.,24.0,0.,24.0,0.,24.0
1981-08-30 18:48:56.410 ,3,1,0.,24.0,0.,24.0,0.,24.0,0.,24.0
1981-08-30 18:49:20.410 ,3,0,0.,24.0,0.,24.0,0.,24.0,0.,24.0
1981-08-30 18:49:44.410 ,2,1,0.,24.0,0.,24.0,0.,24.0,0.,24.0
1981-08-30 18:50:08.410 ,2,0,0.,24.0,0.,24.0,0.,24.0,0.,24.0
1981-08-30 18:50:32.410 ,1,1,0.,24.0,0.,24.0,0.,24.0,0.,24.0
1981-08-30 18:50:56.410 ,1,0,0.,24.0,0.,24.0,0.,24.0,0.,24.0
1981-08-30 18:51:20.410 ,0,1,0.,24.0,0.,24.0,0.,24.0,0.,24.0
1981-08-30 18:51:44.410 ,0,0,0.,24.0,0.,24.0,0.,24.0,0.,24.0
1981-08-30 18:52:08.410 ,0,1,0.,24.0,0.,24.0,0.,24.0,0.,24.0
1981-08-30 18:52:32.410 ,0,0,0.,24.0,0.,24.0,0.,24.0,0.,24.0
1981-08-30 18:52:56.410 ,1,1,0.,24.0,0.,24.0,0.,24.0,0.,24.0
1981-08-30 18:53:20.410 ,1,0,0.,24.0,0.,24.0,0.,24.0,0.,24.0
1981-08-30 18:53:44.410 ,2,1,0.,24.0,0.,24.0,0.,24.0,0.,24.0
1981-08-30 18:54:08.410 ,2,0,0.,24.0,0.,24.0,0.,24.0,0.,24.0
1981-08-30 18:54:32.410 ,3,1,0.,24.0,0.,24.0,0.,24.0,0.,24.0
1981-08-30 18:54:56.410 ,4,1,0.,24.0,0.,24.0,0.,24.0,0.,24.0
1981-08-30 18:55:20.410 ,5,1,0.,24.0,0.,24.0,0.,24.0,0.,24.0
1981-08-30 18:55:44.410 ,6,1,0.,24.0,0.,24.0,0.,24.0,0.,24.0
1981-08-30 18:56:08.410 ,7,1,0.,24.0,0.,24.0,0.,24.0,0.,24.0
1981-08-30 18:56:32.410 ,7,1,0.,24.0,0.,24.0,0.,24.0,0.,24.0
1981-08-30 18:56:56.410 ,6,1,0.,24.0,0.,24.0,0.,24.0,0.,24.0
1981-08-30 18:57:20.410 ,5,1,0.,24.0,0.,24.0,0.,24.0,0.,24.0
1981-08-30 18:57:44.410 ,4,1,0.,24.0,0.,24.0,0.,24.0,0.,24.0
1981-08-30 18:58:08.410 ,3,1,0.,24.0,0.,24.0,0.,24.0,0.,24.0
1981-08-30 18:58:32.410 ,2,1,0.,24.0,0.,24.0,0.,24.0,0.,24.0
1981-08-30 18:58:56.410 ,1,1,0.,24.0,0.,24.0,0.,24.0,0.,24.0
1981-08-30 18:59:20.410 ,0,1,0.,24.0,0.,24.0,0.,24.0,0.,24.0
1981-08-30 18:59:44.410 ,0,1,0.,24.0,0.,24.0,0.,24.0,0.,24.0
1981-08-30 19:00:08.410 ,1,1,0.,24.0,0.,24.0,0.,24.0,0.,24.0
1981-08-30 19:00:32.410 ,2,1,0.,24.0,0.,24.0,0.,24.0,0.,24.0
1981-08-30 19:00:56.410 ,3,1,0.,24.0,0.,24.0,0.,24.0,0.,24.0
1981-08-30 19:01:20.410 ,3,0,0.,24.0,0.,24.0,0.,24.0,0.,24.0
1981-08-30 19:01:44.410 ,4,1,0.,24.0,0.,24.0,0.,24.0,0.,24.0
1981-08-30 19:02:08.410 ,4,0,0.,24.0,0.,24.0,0.,24.0,0.,24.0
1981-08-30 19:02:32.410 ,5,1,0.,24.0,0.,24.0,0.,24.0,0.,24.0
1981-08-30 19:02:56.410 ,5,0,0.,24.0,0.,24.0,0.,24.0,0.,24.0
1981-08-30 19:03:20.410 ,6,1,0.,24.0,0.,24.0,0.,24.0,0.,24.0
1981-08-30 19:03:44.410 ,6,0,0.,24.0,0.,24.0,0.,24.0,0.,24.0
1981-08-30 19:04:08.410 ,7,1,0.,24.0,0.,24.0,0.,24.0,0.,24.0
1981-08-30 19:04:32.410 ,7,0,0.,24.0,0.,24.0,0.,24.0,0.,24.0
1981-08-30 19:04:56.410 ,7,1,0.,24.0,0.,24.0,0.,24.0,0.,24.0
1981-08-30 19:05:20.410 ,7,0,0.,24.0,0.,24.0,0.,24.0,0.,24.0
1981-08-30 19:05:44.410 ,6,1,0.,24.0,0.,24.0,0.,24.0,0.,24.0
1981-08-30 19:06:08.410 ,6,0,0.,24.0,0.,24.0,0.,24.0,0.,24.0
1981-08-30 19:06:32.410 ,5,1,0.,24.0,0.,24.0,0.,24.0,0.,24.0
1981-08-30 19:06:56.410 ,5,0,0.,24.0,0.,24.0,0.,24.0,0.,24.0
1981-08-30 19:07:20.410 ,4,1,0.,24.0,0.,24.0,0.,24.0,0.,24.0
1981-08-30 19:07:44.410 ,4,0,0.,24.0,0.,24.0,0.,24.0,0.,24.0
1981-08-30 19:08:08.410 ,3,1,0.,24.0,0.,24.0,0.,24.0,0.,24.0
1981-08-30 19:08:32.410 ,3,0,0.,24.0,0.,24.0,0.,24.0,0.,24.0
1981-08-30 19:08:56.410 ,2,1,0.,24.0,0.,24.0,0.,24.0,0.,24.0
1981-08-30 19:09:20.410 ,2,0,0.,24.0,0.,24.0,0.,24.0,0.,24.0
1981-08-30 19:09:44.410 ,1,1,0.,24.0,0.,24.0,0.,24.0,0.,24.0
1981-08-30 19:10:08.410 ,1,0,0.,24.0,0.,24.0,0.,24.0,0.,24.0
1981-08-30 19:10:32.410 ,0,1,0.,24.0,0.,24.0,0.,24.0,0.,24.0
1981-08-30 19:10:56.410 ,0,0,0.,24.0,0.,24.0,0.,24.0,0.,24.0
1981-08-30 19:11:20.410 ,0,1,0.,24.0,0.,24.0,0.,24.0,0.,24.0
1981-08-30 19:11:44.410 ,0,0,0.,24.0,0.,24.0,0.,24.0,0.,24.0
1981-08-30 19:12:08.410 ,1,1,0.,24.0,0.,24.0,0.,24.0,0.,24.0
1981-08-30 19:12:32.410 ,1,0,0.,24.0,0.,24.0,0.,24.0,0.,24.0
1981-08-30 19:12:56.410 ,2,1,0.,24.0,0.,24.0,0.,24.0,0.,24.0
1981-08-30 19:13:20.410 ,2,0,0.,24.0,0.,24.0,0.,24.0,0.,24.0
1981-08-30 19:13:44.410 ,3,1,0.,24.0,0.,24.0,0.,24.0,0.,24.0
1981-08-30 19:14:08.410 ,4,1,0.,24.0,0.,24.0,0.,24.0,0.,24.0
1981-08-30 19:14:32.410 ,5,1,0.,24.0,0.,24.0,0.,24.0,0.,24.0
1981-08-30 19:14:56.410 ,6,1,0.,24.0,0.,24.0,0.,24.0,0.,24.0
1981-08-30 19:15:20.410 ,7,1,0.,24.0,0.,24.0,0.,24.0,0.,24.0
1981-08-30 19:15:44.410 ,7,1,0.,24.0,0.,24.0,0.,24.0,0.,24.0
1981-08-30 19:16:08.410 ,6,1,0.,24.0,0.,24.0,0.,24.0,0.,24.0
1981-08-30 19:16:32.410 ,5,1,0.,24.0,0.,24.0,0.,24.0,0.,24.0
1981-08-30 19:16:56.410 ,4,1,0.,24.0,0.,24.0,0.,24.0,0.,24.0
1981-08-30 19:17:20.410 ,3,1,0.,24.0,0.,24.0,0.,24.0,0.,24.0
1981-08-30 19:17:44.410 ,2,1,0.,24.0,0.,24.0,0.,24.0,0.,24.0
1981-08-30 19:18:08.410 ,1,1,0.,24.0,0.,24.0,0.,24.0,0.,24.0
1981-08-30 19:18:32.410 ,0,1,0.,24.0,0.,24.0,0.,24.0,0.,24.0
1981-08-30 19:18:56.410 ,0,1,0.,24.0,0.,24.0,0.,24.0,0.,24.0
1981-08-30 19:19:20.410 ,1,1,0.,24.0,0.,24.0,0.,24.0,0.,24.0
1981-08-30 19:19:44.410 ,2,1,0.,24.0,0.,24.0,0.,24.0,0.,24.0
1981-08-30 19:20:08.410 ,3,1,0.,24.0,0.,24.0,0.,24.0,0.,24.0
1981-08-30 19:20:32.410 ,3,0,0.,24.0,0.,24.0,0.,24.0,0.,24.0
1981-08-30 19:20:56.410 ,4,1,0.,24.0,0.,24.0,0.,24.0,0.,24.0
1981-08-30 19:21:20.410 ,4,0,0.,24.0,0.,24.0,0.,24.0,0.,24.0
1981-08-30 19:21:44.410 ,5,1,0.,24.0,0.,24.0,0.,24.0,0.,24.0
1981-08-30 19:22:08.410 ,5,0,0.,24.0,0.,24.0,0.,24.0,0.,24.0
1981-08-30 19:22:32.410 ,6,1,0.,24.0,0.,24.0,0.,24.0,0.,24.0
1981-08-30 19:22:56.410 ,6,0,0.,24.0,0.,24.0,0.,24.0,0.,24.0
1981-08-30 19:23:20.410 ,7,1,0.,24.0,0.,24.0,0.,24.0,0.,24.0
1981-08-30 19:23:44.410 ,7,0,0.,24.0,0.,24.0,0.,24.0,0.,24.0
1981-08-30 19:24:08.410 ,7,1,0.,24.0,0.,24.0,0.,24.0,0.,24.0
1981-08-30 19:24:32.410 ,7,0,0.,24.0,0.,24.0,0.,24.0,0.,24.0
1981-08-30 19:24:56.410 ,6,1,0.,24.0,0.,24.0,0.,24.0,0.,24.0
1981-08-30 19:25:20.410 ,6,0,0.,24.0,0.,24.0,0.,24.0,0.,24.0
1981-08-30 19:25:44.410 ,5,1,0.,24.0,0.,24.0,0.,24.0,0.,24.0
1981-08-30 19:26:08.410 ,5,0,0.,24.0,0.,24.0,0.,24.0,0.,24.0
1981-08-30 19:26:32.410 ,4,1,0.,24.0,0.,24.0,0.,24.0,0.,24.0
1981-08-30 19:26:56.410 ,4,0,0.,24.0,0.,24.0,0.,24.0,0.,24.0
1981-08-30 19:27:20.410 ,3,1,0.,24.0,0.,24.0,0.,24.0,0.,24.0
1981-08-30 19:27:44.410 ,3,0,0.,24.0,0.,24.0,0.,24.0,0.,24.0
1981-08-30 19:28:08.410 ,2,1,0.,24.0,0.,24.0,0.,24.0,0.,24.0
1981-08-30 19:28:32.410 ,2,0,0.,24.0,0.,24.0,0.,24.0,0.,24.0
1981-08-30 19:28:56.410 ,1,1,0.,24.0,0.,24.0,0.,24.0,0.,24.0
1981-08-30 19:29:20.410 ,1,0,0.,24.0,0.,24.0,0.,24.0,0.,24.0
1981-08-30 19:29:44.410 ,0,1,0.,24.0,0.,24.0,0.,24.0,0.,24.0
1981-08-30 19:30:08.410 ,0,0,0.,24.0,0.,24.0,0.,24.0,0.,24.0
1981-08-30 19:30:32.410 ,0,1,0.,24.0,0.,24.0,0.,24.0,0.,24.0
1981-08-30 19:30:56.410 ,0,0,0.,24.0,0.,24.0,0.,24.0,0.,24.0
1981-08-30 19:31:20.410 ,1,1,0.,24.0,0.,24.0,0.,24.0,0.,24.0
1981-08-30 19:31:44.410 ,1,0,0.,24.0,0.,24.0,0.,24.0,0.,24.0
1981-08-30 19:32:08.410 ,2,1,0.,24.0,0.,24.0,0.,24.0,0.,24.0
1981-08-30 19:32:32.410 ,2,0,0.,24.0,0.,24.0,0.,24.0,0.,24.0
1981-08-30 19:32:56.410 ,3,1,0.,24.0,0.,24.0,0.,24.0,0.,24.0
1981-08-30 19:33:20.410 ,4,1,0.,24.0,0.,24.0,0.,24.0,0.,24.0
1981-08-30 19:33:44.410 ,5,1,0.,24.0,0.,24.0,0.,24.0,0.,24.0
1981-08-30 19:34:08.410 ,6,1,0.,24.0,0.,24.0,0.,24.0,0.,24.0
1981-08-30 19:34:32.410 ,7,1,1.,24.0,0.,24.0,0.,24.0,0.,24.0
1981-08-30 19:34:56.410 ,7,1,0.,24.0,0.,24.0,0.,24.0,0.,24.0
1981-08-30 19:35:20.410 ,6,1,0.,24.0,0.,24.0,0.,24.0,0.,24.0
1981-08-30 19:35:44.410 ,5,1,0.,24.0,0.,24.0,0.,24.0,0.,24.0
1981-08-30 19:36:08.410 ,4,1,0.,24.0,0.,24.0,0.,24.0,0.,24.0
1981-08-30 19:36:32.410 ,3,1,0.,24.0,0.,24.0,0.,24.0,0.,24.0
1981-08-30 19:36:56.410 ,2,1,0.,24.0,0.,24.0,0.,24.0,0.,24.0
1981-08-30 19:37:20.410 ,1,1,0.,24.0,0.,24.0,0.,24.0,0.,24.0
1981-08-30 19:37:44.410 ,0,1,0.,24.0,0.,24.0,0.,24.0,0.,24.0
1981-08-30 19:38:08.410 ,0,1,0.,24.0,0.,24.0,0.,24.0,0.,24.0
1981-08-30 19:38:32.410 ,1,1,0.,24.0,0.,24.0,0.,24.0,0.,24.0
1981-08-30 19:38:56.410 ,2,1,0.,24.0,0.,24.0,0.,24.0,0.,24.0
1981-08-30 19:39:20.410 ,3,1,0.,24.0,0.,24.0,0.,24.0,0.,24.0
1981-08-30 19:39:44.410 ,3,0,0.,24.0,0.,24.0,0.,24.0,0.,24.0
1981-08-30 19:40:08.410 ,4,1,0.,24.0,0.,24.0,0.,24.0,0.,24.0
1981-08-30 19:40:32.410 ,4,0,0.,24.0,0.,24.0,0.,24.0,0.,24.0
1981-08-30 19:40:56.410 ,5,1,0.,24.0,0.,24.0,0.,24.0,0.,24.0
1981-08-30 19:41:20.410 ,5,0,1.,24.0,0.,24.0,0.,24.0,0.,24.0
1981-08-30 19:41:44.410 ,6,1,0.,24.0,0.,24.0,0.,24.0,0.,24.0
1981-08-30 19:42:08.410 ,6,0,0.,24.0,0.,24.0,0.,24.0,0.,24.0
1981-08-30 19:42:32.410 ,7,1,0.,24.0,0.,24.0,0.,24.0,0.,24.0
1981-08-30 19:42:56.410 ,7,0,0.,24.0,0.,24.0,0.,24.0,0.,24.0
1981-08-30 19:43:20.410 ,7,1,0.,24.0,0.,24.0,0.,24.0,0.,24.0
1981-08-30 19:43:44.410 ,7,0,0.,24.0,0.,24.0,0.,24.0,0.,24.0
1981-08-30 19:44:08.410 ,6,1,0.,24.0,0.,24.0,0.,24.0,0.,24.0
1981-08-30 19:44:32.410 ,6,0,0.,24.0,0.,24.0,0.,24.0,0.,24.0
1981-08-30 19:44:56.410 ,5,1,0.,24.0,0.,24.0,0.,24.0,0.,24.0
1981-08-30 19:45:20.410 ,5,0,0.,24.0,0.,24.0,0.,24.0,0.,24.0
1981-08-30 19:45:44.410 ,4,1,0.,24.0,0.,24.0,0.,24.0,0.,24.0
1981-08-30 19:46:08.410 ,4,0,0.,24.0,0.,24.0,0.,24.0,0.,24.0
1981-08-30 19:46:32.410 ,3,1,0.,24.0,0.,24.0,0.,24.0,0.,24.0
1981-08-30 19:46:56.410 ,3,0,0.,24.0,0.,24.0,0.,24.0,0.,24.0
1981-08-30 19:47:20.410 ,2,1,0.,24.0,0.,24.0,0.,24.0,0.,24.0
1981-08-30 19:47:44.410 ,2,0,0.,24.0,0.,24.0,0.,24.0,0.,24.0
1981-08-30 19:48:08.410 ,1,1,0.,24.0,0.,24.0,0.,24.0,0.,24.0
1981-08-30 19:48:32.410 ,1,0,0.,24.0,0.,24.0,0.,24.0,0.,24.0
1981-08-30 19:48:56.410 ,0,1,0.,24.0,0.,24.0,0.,24.0,0.,24.0
1981-08-30 19:49:20.410 ,0,0,0.,24.0,0.,24.0,0.,24.0,0.,24.0
1981-08-30 19:50:01.210 ,0,0,,0,,0,,0,,0
1981-08-30 19:50:08.410 ,0,0,0.,24.0,0.,24.0,0.,24.0,0.,24.0
1981-08-30 19:50:32.410 ,1,1,0.,24.0,0.,24.0,0.,24.0,0.,24.0
1981-08-30 19:50:56.410 ,1,0,0.,24.0,0.,24.0,0.,24.0,0.,24.0
1981-08-30 19:51:20.410 ,2,1,0.,24.0,0.,24.0,0.,24.0,0.,24.0
1981-08-30 19:51:44.410 ,2,0,0.,24.0,0.,24.0,0.,24.0,0.,24.0
1981-08-30 19:52:08.410 ,3,1,0.,24.0,0.,24.0,0.,24.0,0.,24.0
1981-08-30 19:52:32.410 ,4,1,0.,24.0,0.,24.0,0.,24.0,0.,24.0
1981-08-30 19:52:56.410 ,5,1,0.,24.0,0.,24.0,0.,24.0,0.,24.0
1981-08-30 19:53:20.410 ,6,1,0.,24.0,0.,24.0,0.,24.0,0.,24.0
1981-08-30 19:53:44.410 ,7,1,0.,24.0,0.,24.0,0.,24.0,0.,24.0
1981-08-30 19:54:08.410 ,7,1,0.,24.0,0.,24.0,0.,24.0,0.,24.0
1981-08-30 19:54:32.410 ,6,1,0.,24.0,0.,24.0,0.,24.0,0.,24.0
1981-08-30 19:54:56.410 ,5,1,0.,24.0,0.,24.0,0.,24.0,0.,24.0
1981-08-30 19:55:20.410 ,4,1,0.,24.0,0.,24.0,0.,24.0,0.,24.0
1981-08-30 19:55:44.410 ,3,1,0.,24.0,0.,24.0,0.,24.0,0.,24.0
1981-08-30 19:56:08.410 ,2,1,0.,24.0,0.,24.0,0.,24.0,0.,24.0
1981-08-30 19:56:32.410 ,1,1,0.,24.0,0.,24.0,0.,24.0,0.,24.0
1981-08-30 19:56:56.410 ,0,1,0.,24.0,0.,24.0,0.,24.0,0.,24.0
1981-08-30 19:57:20.410 ,0,1,0.,24.0,0.,24.0,0.,24.0,0.,24.0
1981-08-30 19:57:44.410 ,1,1,0.,24.0,0.,24.0,0.,24.0,0.,24.0
1981-08-30 19:58:08.410 ,2,1,0.,24.0,0.,24.0,0.,24.0,0.,24.0
1981-08-30 19:58:32.410 ,3,1,0.,24.0,0.,24.0,0.,24.0,0.,24.0
1981-08-30 19:58:56.410 ,3,0,0.,24.0,0.,24.0,0.,24.0,0.,24.0
1981-08-30 19:59:20.410 ,4,1,0.,24.0,0.,24.0,0.,24.0,0.,24.0
1981-08-30 19:59:44.410 ,4,0,0.,24.0,0.,24.0,0.,24.0,0.,24.0
1981-08-30 20:00:08.410 ,5,1,0.,24.0,0.,24.0,0.,24.0,0.,24.0
1981-08-30 20:00:32.410 ,5,0,0.,24.0,0.,24.0,0.,24.0,0.,24.0
1981-08-30 20:00:56.410 ,6,1,0.,24.0,0.,24.0,0.,24.0,0.,24.0
1981-08-30 20:01:20.410 ,6,0,0.,24.0,0.,24.0,0.,24.0,0.,24.0
1981-08-30 20:01:44.410 ,7,1,0.,24.0,0.,24.0,0.,24.0,0.,24.0
1981-08-30 20:02:08.410 ,7,0,0.,24.0,0.,24.0,0.,24.0,0.,24.0
1981-08-30 20:02:32.410 ,7,1,0.,24.0,0.,24.0,0.,24.0,0.,24.0
1981-08-30 20:02:56.410 ,7,0,0.,24.0,0.,24.0,0.,24.0,0.,24.0
1981-08-30 20:03:20.410 ,6,1,0.,24.0,0.,24.0,0.,24.0,0.,24.0
1981-08-30 20:03:44.410 ,6,0,0.,24.0,0.,24.0,0.,24.0,0.,24.0
1981-08-30 20:04:08.410 ,5,1,0.,24.0,0.,24.0,0.,24.0,0.,24.0
1981-08-30 20:04:32.410 ,5,0,0.,24.0,0.,24.0,0.,24.0,0.,24.0
1981-08-30 20:04:56.410 ,4,1,0.,24.0,0.,24.0,0.,24.0,0.,24.0
1981-08-30 20:05:20.410 ,4,0,0.,24.0,0.,24.0,0.,24.0,0.,24.0
1981-08-30 20:05:44.410 ,3,1,0.,24.0,0.,24.0,0.,24.0,0.,24.0
1981-08-30 20:06:08.410 ,3,0,0.,24.0,0.,24.0,0.,24.0,0.,24.0
1981-08-30 20:06:32.410 ,2,1,0.,24.0,0.,24.0,0.,24.0,0.,24.0
1981-08-30 20:06:56.410 ,2,0,0.,24.0,0.,24.0,0.,24.0,0.,24.0
1981-08-30 20:07:20.410 ,1,1,0.,24.0,0.,24.0,0.,24.0,0.,24.0
1981-08-30 20:07:44.410 ,1,0,0.,24.0,0.,24.0,0.,24.0,0.,24.0
1981-08-30 20:08:08.410 ,0,1,0.,24.0,0.,24.0,0.,24.0,0.,24.0
1981-08-30 20:08:32.410 ,0,0,0.,24.0,0.,24.0,0.,24.0,0.,24.0
1981-08-30 20:08:56.410 ,0,1,0.,24.0,0.,24.0,0.,24.0,0.,24.0
1981-08-30 20:09:20.410 ,0,0,0.,24.0,0.,24.0,0.,24.0,0.,24.0
1981-08-30 20:09:44.410 ,1,1,0.,24.0,0.,24.0,0.,24.0,0.,24.0
1981-08-30 20:10:08.410 ,1,0,0.,24.0,0.,24.0,0.,24.0,0.,24.0
1981-08-30 20:10:32.410 ,2,1,0.,24.0,0.,24.0,0.,24.0,0.,24.0
1981-08-30 20:10:56.410 ,2,0,0.,24.0,0.,24.0,0.,24.0,0.,24.0
1981-08-30 20:11:20.410 ,3,1,0.,24.0,0.,24.0,0.,24.0,0.,24.0
1981-08-30 20:11:44.410 ,4,1,0.,24.0,0.,24.0,0.,24.0,0.,24.0
1981-08-30 20:12:08.410 ,5,1,0.,24.0,0.,24.0,0.,24.0,0.,24.0
1981-08-30 20:12:32.410 ,6,1,0.,24.0,0.,24.0,0.,24.0,0.,24.0
1981-08-30 20:12:56.410 ,7,1,0.,24.0,0.,24.0,0.,24.0,0.,24.0
1981-08-30 20:13:20.410 ,7,1,0.,24.0,0.,24.0,0.,24.0,0.,24.0
1981-08-30 20:13:44.410 ,6,1,0.,24.0,0.,24.0,0.,24.0,0.,24.0
1981-08-30 20:14:08.410 ,5,1,0.,24.0,0.,24.0,0.,24.0,0.,24.0
1981-08-30 20:14:32.410 ,4,1,0.,24.0,0.,24.0,0.,24.0,0.,24.0
1981-08-30 20:14:56.410 ,3,1,0.,24.0,0.,24.0,0.,24.0,0.,24.0
1981-08-30 20:15:20.410 ,2,1,0.,24.0,0.,24.0,0.,24.0,0.,24.0
1981-08-30 20:15:44.410 ,1,1,0.,24.0,0.,24.0,0.,24.0,0.,24.0
1981-08-30 20:16:08.410 ,0,1,0.,24.0,0.,24.0,0.,24.0,0.,24.0
1981-08-30 20:16:32.410 ,0,1,0.,24.0,0.,24.0,0.,24.0,0.,24.0
1981-08-30 20:16:56.410 ,1,0,,0,,0,,0,,0
1981-08-30 20:17:20.410 ,2,1,0.,24.0,0.,24.0,0.,24.0,0.,24.0
1981-08-30 20:17:44.410 ,3,1,0.,24.0,0.,24.0,0.,24.0,0.,24.0
1981-08-30 20:18:08.410 ,3,0,0.,24.0,0.,24.0,0.,24.0,0.,24.0
1981-08-30 20:18:32.410 ,4,1,0.,24.0,0.,24.0,0.,24.0,0.,24.0
1981-08-30 20:18:56.410 ,4,0,0.,24.0,0.,24.0,0.,24.0,0.,24.0
1981-08-30 20:19:20.410 ,5,1,0.,24.0,0.,24.0,0.,24.0,0.,24.0
1981-08-30 20:19:44.410 ,5,0,0.,24.0,0.,24.0,0.,24.0,0.,24.0
1981-08-30 20:20:08.410 ,6,1,0.,24.0,0.,24.0,0.,24.0,0.,24.0
1981-08-30 20:20:32.410 ,6,0,0.,24.0,0.,24.0,0.,24.0,0.,24.0
1981-08-30 20:20:56.410 ,7,1,0.,24.0,0.,24.0,0.,24.0,0.,24.0
1981-08-30 20:21:20.410 ,7,0,0.,24.0,0.,24.0,0.,24.0,0.,24.0
1981-08-30 20:21:44.410 ,7,1,0.,24.0,0.,24.0,0.,24.0,0.,24.0
1981-08-30 20:22:08.410 ,7,0,0.,24.0,0.,24.0,0.,24.0,0.,24.0
1981-08-30 20:22:32.410 ,6,1,0.,24.0,0.,24.0,0.,24.0,0.,24.0
1981-08-30 20:22:56.410 ,6,0,0.,24.0,0.,24.0,0.,24.0,0.,24.0
1981-08-30 20:23:20.410 ,5,1,0.,24.0,0.,24.0,0.,24.0,0.,24.0
1981-08-30 20:23:44.410 ,5,0,0.,24.0,0.,24.0,0.,24.0,0.,24.0
1981-08-30 20:24:08.410 ,4,1,0.,24.0,0.,24.0,0.,24.0,0.,24.0
1981-08-30 20:24:32.410 ,4,0,0.,24.0,0.,24.0,0.,24.0,0.,24.0
1981-08-30 20:24:56.410 ,3,1,0.,24.0,0.,24.0,0.,24.0,0.,24.0
1981-08-30 20:25:20.410 ,3,0,0.,24.0,0.,24.0,0.,24.0,0.,24.0
1981-08-30 20:25:44.410 ,2,1,0.,24.0,0.,24.0,0.,24.0,0.,24.0
1981-08-30 20:26:08.410 ,2,0,0.,24.0,0.,24.0,0.,24.0,0.,24.0
1981-08-30 20:26:32.410 ,1,1,0.,24.0,0.,24.0,0.,24.0,0.,24.0
1981-08-30 20:26:56.410 ,1,0,0.,24.0,0.,24.0,0.,24.0,0.,24.0
1981-08-30 20:27:20.410 ,0,1,0.,24.0,0.,24.0,0.,24.0,0.,24.0
1981-08-30 20:27:44.410 ,0,0,0.,24.0,0.,24.0,0.,24.0,0.,24.0
1981-08-30 20:28:08.410 ,0,1,0.,24.0,0.,24.0,0.,24.0,0.,24.0
1981-08-30 20:28:32.410 ,0,0,0.,24.0,0.,24.0,0.,24.0,0.,24.0
1981-08-30 20:28:56.410 ,1,1,0.,24.0,0.,24.0,0.,24.0,0.,24.0
1981-08-30 20:29:20.410 ,1,0,0.,24.0,0.,24.0,0.,24.0,0.,24.0
1981-08-30 20:29:44.410 ,2,1,0.,24.0,0.,24.0,0.,24.0,0.,24.0
1981-08-30 20:30:08.410 ,2,0,0.,24.0,0.,24.0,0.,24.0,0.,24.0
1981-08-30 20:30:32.410 ,3,1,0.,24.0,0.,24.0,0.,24.0,0.,24.0
1981-08-30 20:30:56.410 ,4,1,0.,24.0,0.,24.0,0.,24.0,0.,24.0
1981-08-30 20:31:20.410 ,5,1,0.,24.0,0.,24.0,0.,24.0,0.,24.0
1981-08-30 20:31:44.410 ,6,1,0.,24.0,0.,24.0,0.,24.0,0.,24.0
1981-08-30 20:32:08.410 ,7,1,0.,24.0,0.,24.0,0.,24.0,0.,24.0
1981-08-30 20:32:32.410 ,7,1,0.,24.0,0.,24.0,0.,24.0,0.,24.0
1981-08-30 20:32:56.410 ,6,1,0.,24.0,0.,24.0,0.,24.0,0.,24.0
1981-08-30 20:33:20.410 ,5,1,0.,24.0,0.,24.0,0.,24.0,0.,24.0
1981-08-30 20:33:44.410 ,4,1,0.,24.0,0.,24.0,0.,24.0,0.,24.0
1981-08-30 20:34:08.410 ,3,1,0.,24.0,0.,24.0,0.,24.0,0.,24.0
1981-08-30 20:34:32.400 ,2,1,0.,24.0,0.,24.0,0.,24.0,0.,24.0
1981-08-30 20:34:56.400 ,1,1,0.,24.0,0.,24.0,0.,24.0,0.,24.0